timestamp,surface_pressure_avg,surface_temp_avg,battery_voltage,lat,long
2020-02-29 00:09:01+00:00,241.5665,-0.1,12.89,47.84626,-54.09684
2020-02-29 00:19:01+00:00,266.2414,-0.1,12.65,47.84626,-54.09684
2020-02-29 00:29:01+00:00,279.7464,-0.1,12.65,47.84626,-54.09684
2020-02-29 00:39:01+00:00,265.4148,-0.1,12.65,47.84626,-54.09684
2020-02-29 00:49:01+00:00,260.3464,-0.1,12.65,47.84626,-54.09684
2020-02-29 00:59:01+00:00,294.9581,-0.1,12.65,47.84626,-54.09684
2020-02-29 01:09:01+00:00,312.673,-0.1,12.65,47.84626,-54.09684
2020-02-29 01:19:01+00:00,302.9813,-0.1,12.57,47.84626,-54.09684
2020-02-29 01:29:01+00:00,296.1297,-0.1,12.57,47.84626,-54.09684
2020-02-29 01:39:01+00:00,316.0797,-0.1,12.57,47.84626,-54.09684
2020-02-29 01:49:01+00:00,319.7796,-0.1,12.57,47.84626,-54.09684
2020-02-29 01:59:01+00:00,314.658,-0.1,12.57,47.84626,-54.09684
2020-02-29 02:09:01+00:00,325.938,-0.1,12.57,47.84626,-54.09684
2020-02-29 02:19:01+00:00,341.6829,-0.1,12.57,47.84626,-54.09684
2020-02-29 02:29:01+00:00,334.858,-0.1,12.57,47.84626,-54.09684
2020-02-29 02:39:01+00:00,329.7681,-0.1,12.57,47.84626,-54.09684
2020-02-29 02:49:01+00:00,338.8947,-0.1,12.57,47.84626,-54.09684
2020-02-29 02:59:01+00:00,338.9312,-0.1,12.57,47.84626,-54.09684
2020-02-29 03:09:01+00:00,328.408,-0.1,12.57,47.84626,-54.09684
2020-02-29 03:19:01+00:00,335.5013,-0.1,12.57,47.84626,-54.09684
2020-02-29 03:29:01+00:00,341.5163,-0.1,12.57,47.84626,-54.09684
2020-02-29 03:39:01+00:00,327.1314,-0.1,12.57,47.84626,-54.09684
2020-02-29 03:49:01+00:00,320.0779,-0.17,12.57,47.84626,-54.09684
2020-02-29 03:59:01+00:00,331.1247,-0.2,12.57,47.84626,-54.09684
2020-02-29 04:09:01+00:00,342.6096,-0.2,12.57,47.84626,-54.09684
2020-02-29 04:19:01+00:00,332.6997,-0.2,12.57,47.84626,-54.09684
2020-02-29 04:29:01+00:00,329.5497,-0.21,12.57,47.84626,-54.09684
2020-02-29 04:39:01+00:00,333.9496,-0.2,12.57,47.84626,-54.09684
2020-02-29 04:49:01+00:00,319.9146,-0.24,12.57,47.84626,-54.09684
2020-02-29 04:59:01+00:00,312.123,-0.28,12.57,47.84626,-54.09684
2020-02-29 05:09:01+00:00,317.838,-0.26,12.57,47.84626,-54.09684
2020-02-29 05:19:01+00:00,313.1029,-0.26,12.57,47.84626,-54.09684
2020-02-29 05:29:01+00:00,300.0396,-0.29,12.57,47.84626,-54.09684
2020-02-29 05:39:01+00:00,299.8497,-0.26,12.57,47.84626,-54.09684
2020-02-29 05:49:01+00:00,305.853,-0.25,12.57,47.84626,-54.09684
2020-02-29 05:59:01+00:00,288.033,-0.3,12.57,47.84626,-54.09684
2020-02-29 06:09:01+00:00,279.0247,-0.32,12.57,47.84626,-54.09684
2020-02-29 06:19:01+00:00,278.4097,-0.34,12.49,47.84626,-54.09684
2020-02-29 06:29:01+00:00,274.4263,-0.4,12.49,47.84626,-54.09684
2020-02-29 06:39:01+00:00,256.0364,-0.4,12.49,47.84626,-54.09684
2020-02-29 06:49:01+00:00,249.3931,-0.4,12.49,47.84626,-54.09684
2020-02-29 06:59:01+00:00,248.0565,-0.38,12.49,47.84626,-54.09684
2020-02-29 07:09:01+00:00,242.6164,-0.37,12.49,47.84626,-54.09684
2020-02-29 07:19:01+00:00,230.7997,-0.4,12.49,47.84626,-54.09684
2020-02-29 07:29:01+00:00,227.8848,-0.4,12.49,47.84626,-54.09684
2020-02-29 07:39:01+00:00,221.0614,-0.4,12.49,47.84626,-54.09684
2020-02-29 07:49:01+00:00,215.5448,-0.4,12.49,47.84626,-54.09684
2020-02-29 07:59:01+00:00,215.6648,-0.5,12.49,47.84626,-54.09684
2020-02-29 08:09:01+00:00,205.5865,-0.5,12.49,47.84626,-54.09684
2020-02-29 08:19:01+00:00,188.5931,-0.51,12.49,47.84626,-54.09684
2020-02-29 08:29:01+00:00,189.1398,-0.53,12.49,47.84626,-54.09684
2020-02-29 08:39:01+00:00,201.5264,-0.53,12.49,47.84626,-54.09684
2020-02-29 08:49:01+00:00,197.7081,-0.53,12.49,47.84626,-54.09684
2020-02-29 08:59:01+00:00,192.3114,-0.56,12.49,47.84626,-54.09684
2020-02-29 09:09:01+00:00,201.1381,-0.57,12.49,47.84626,-54.09684
2020-02-29 09:19:01+00:00,206.3764,-0.56,12.41,47.84626,-54.09684
2020-02-29 09:29:01+00:00,209.3765,-0.55,12.41,47.84626,-54.09684
2020-02-29 09:39:01+00:00,213.7681,-0.6,12.41,47.84626,-54.09684
2020-02-29 09:49:01+00:00,221.4031,-0.7,12.41,47.84626,-54.09684
2020-02-29 09:59:01+00:00,224.1631,-0.8,12.41,47.84626,-54.09684
2020-02-29 10:09:01+00:00,224.2698,-1.0,12.41,47.84626,-54.09684
2020-02-29 10:19:01+00:00,233.9331,-0.9,12.41,47.84626,-54.09684
2020-02-29 10:29:01+00:00,244.0064,-0.8,12.41,47.84626,-54.09684
2020-02-29 10:39:01+00:00,245.1964,-0.8,12.41,47.84626,-54.09684
2020-02-29 10:49:01+00:00,247.963,-0.7,12.41,47.84626,-54.09684
2020-02-29 10:59:01+00:00,258.4365,-0.63,12.41,47.84626,-54.09684
2020-02-29 11:09:01+00:00,267.3264,-0.6,12.41,47.84626,-54.09684
2020-02-29 11:19:01+00:00,270.7447,-0.6,13.53,47.84626,-54.09684
2020-02-29 11:29:01+00:00,270.0714,-0.6,13.53,47.84626,-54.09684
2020-02-29 11:39:01+00:00,263.5331,-0.6,13.53,47.84626,-54.09684
2020-02-29 11:49:01+00:00,257.4448,-0.57,13.53,47.84626,-54.09684
2020-02-29 11:59:01+00:00,252.4948,-0.5,13.53,47.84626,-54.09684
2020-02-29 12:09:01+00:00,255.3564,-0.4,13.53,47.84626,-54.09684
2020-02-29 12:19:01+00:00,260.4147,-0.4,14.8,47.84626,-54.09684
2020-02-29 12:29:01+00:00,261.9448,-0.4,14.8,47.84626,-54.09684
2020-02-29 12:39:01+00:00,267.453,-0.5,14.8,47.84626,-54.09684
2020-02-29 12:49:01+00:00,277.1031,-0.42,14.8,47.84626,-54.09684
2020-02-29 12:59:01+00:00,283.1447,-0.4,14.8,47.84626,-54.09684
2020-02-29 13:09:01+00:00,284.9398,-0.4,14.8,47.84626,-54.09684
2020-02-29 13:19:01+00:00,293.0081,-0.4,14.48,47.84626,-54.09684
2020-02-29 13:29:01+00:00,301.4563,-0.4,14.48,47.84626,-54.09684
2020-02-29 13:39:01+00:00,298.463,-0.4,14.48,47.84626,-54.09684
2020-02-29 13:49:01+00:00,305.398,-0.4,14.48,47.84626,-54.09684
2020-02-29 13:59:01+00:00,323.6296,-0.39,14.48,47.84626,-54.09684
2020-02-29 14:09:01+00:00,334.8363,-0.33,14.48,47.84626,-54.09684
2020-02-29 14:19:01+00:00,331.4447,-0.4,14.88,47.84626,-54.09684
2020-02-29 14:29:01+00:00,335.0663,-0.4,14.88,47.84626,-54.09684
2020-02-29 14:39:01+00:00,347.343,-0.37,14.88,47.84626,-54.09684
2020-02-29 14:49:01+00:00,346.3446,-0.33,14.88,47.84626,-54.09684
2020-02-29 14:59:01+00:00,341.2164,-0.39,14.88,47.84626,-54.09684
2020-02-29 15:09:01+00:00,339.8096,-0.38,14.88,47.84626,-54.09684
2020-02-29 15:19:01+00:00,343.8196,-0.33,14.8,47.84626,-54.09684
2020-02-29 15:29:01+00:00,332.5345,-0.33,14.8,47.84626,-54.09684
2020-02-29 15:39:01+00:00,324.3863,-0.32,14.8,47.84626,-54.09684
2020-02-29 15:49:01+00:00,331.858,-0.31,14.8,47.84626,-54.09684
2020-02-29 15:59:01+00:00,330.9547,-0.3,14.8,47.84626,-54.09684
2020-02-29 16:09:01+00:00,319.2664,-0.3,14.8,47.84626,-54.09684
2020-02-29 16:19:01+00:00,317.4714,-0.3,14.64,47.84626,-54.09684
2020-02-29 16:29:01+00:00,323.6879,-0.3,14.64,47.84626,-54.09684
2020-02-29 16:39:01+00:00,321.2379,-0.3,14.64,47.84626,-54.09684
2020-02-29 16:49:01+00:00,308.9847,-0.3,14.64,47.84626,-54.09684
2020-02-29 16:59:01+00:00,311.2197,-0.3,14.64,47.84626,-54.09684
2020-02-29 17:09:01+00:00,315.513,-0.3,14.64,47.84626,-54.09684
2020-02-29 17:19:01+00:00,309.313,-0.3,14.56,47.84626,-54.09684
2020-02-29 17:29:01+00:00,301.743,-0.3,14.56,47.84626,-54.09684
2020-02-29 17:39:01+00:00,295.7463,-0.28,14.56,47.84626,-54.09684
2020-02-29 17:49:01+00:00,290.548,-0.29,14.56,47.84626,-54.09684
2020-02-29 17:59:01+00:00,285.8747,-0.27,14.56,47.84626,-54.09684
2020-02-29 18:09:01+00:00,286.9697,-0.26,14.56,47.84626,-54.09684
2020-02-29 18:19:01+00:00,280.2481,-0.23,14.48,47.84626,-54.09684
2020-02-29 18:29:01+00:00,264.08799999999997,-0.23,14.48,47.84626,-54.09684
2020-02-29 18:39:01+00:00,260.8715,-0.21,14.48,47.84626,-54.09684
2020-02-29 18:49:01+00:00,261.598,-0.2,14.48,47.84626,-54.09684
2020-02-29 18:59:01+00:00,252.8481,-0.2,14.48,47.84626,-54.09684
2020-02-29 19:09:01+00:00,240.6047,-0.2,14.48,47.84626,-54.09684
2020-02-29 19:19:01+00:00,230.8531,-0.2,14.24,47.84626,-54.09684
2020-02-29 19:29:01+00:00,221.9164,-0.2,14.24,47.84626,-54.09684
2020-02-29 19:39:01+00:00,213.2765,-0.2,14.24,47.84626,-54.09684
2020-02-29 19:49:01+00:00,206.4948,-0.2,14.24,47.84626,-54.09684
2020-02-29 19:59:01+00:00,206.6998,-0.2,14.24,47.84626,-54.09684
2020-02-29 20:09:01+00:00,207.2598,-0.2,14.24,47.84626,-54.09684
2020-02-29 20:19:01+00:00,205.7615,-0.2,14.0,47.84626,-54.09684
2020-02-29 20:29:01+00:00,205.3931,-0.2,14.0,47.84626,-54.09684
2020-02-29 20:39:01+00:00,202.9515,-0.17,14.0,47.84626,-54.09684
2020-02-29 20:49:01+00:00,199.1898,-0.15,14.0,47.84626,-54.09684
2020-02-29 20:59:01+00:00,197.3381,-0.14,14.0,47.84626,-54.09684
2020-02-29 21:09:01+00:00,198.2198,-0.14,14.0,47.84626,-54.09684
2020-02-29 21:19:01+00:00,200.6848,-0.13,13.6,47.84626,-54.09684
2020-02-29 21:29:01+00:00,203.9631,-0.12,13.6,47.84626,-54.09684
2020-02-29 21:39:01+00:00,214.2248,-0.12,13.6,47.84626,-54.09684
2020-02-29 21:49:01+00:00,215.4581,-0.11,13.6,47.84626,-54.09684
2020-02-29 21:59:01+00:00,211.4314,-0.11,13.6,47.84626,-54.09684
2020-02-29 22:09:01+00:00,219.8248,-0.12,13.6,47.84626,-54.09684
2020-02-29 22:19:01+00:00,231.5048,-0.13,13.13,47.84626,-54.09684
2020-02-29 22:29:01+00:00,233.7431,-0.12,13.13,47.84626,-54.09684
2020-02-29 22:39:01+00:00,229.6348,-0.13,13.13,47.84626,-54.09684
2020-02-29 22:49:01+00:00,236.3448,-0.18,13.13,47.84626,-54.09684
2020-02-29 22:59:01+00:00,249.0097,-0.2,13.13,47.84626,-54.09684
2020-02-29 23:09:01+00:00,250.6798,-0.2,13.13,47.84626,-54.09684
2020-02-29 23:19:01+00:00,243.5314,-0.2,12.81,47.84626,-54.09684
2020-02-29 23:29:01+00:00,245.9247,-0.21,12.81,47.84626,-54.09684
2020-02-29 23:39:01+00:00,261.7431,-0.21,12.81,47.84626,-54.09684
2020-02-29 23:49:01+00:00,266.6964,-0.23,12.81,47.84626,-54.09684
2020-02-29 23:59:01+00:00,261.6331,-0.27,12.81,47.84626,-54.09684
